Location: Saluda
(35.2377°N, 82.3468°W)
Time: 14:30:15
(UTC+00:00)

SR - Pass Details

Date: 09 October 2022
Orbit: 577 x 875 km, 66.7° (Epoch: 28 November)

Event Time Altitude Azimuth Distance (km) Brightness Sun altitude
Rises 08:39:10 0° 348° (NNW) 3,292 - -35.3°
Exits shadow 08:40:40 - 355° (N) 2,817 ? -35.1°
Reaches altitude 10° 08:42:31 10° 7° (N) 2,298 ? -34.7°
Maximum altitude 08:45:55 17° 48° (NE) 1,784 ? -34.0°
Drops below altitude 10° 08:49:09 10° 89° (E) 2,159 ? -33.4°
Sets 08:52:08 0° 110° (ESE) 3,009 ? -32.8°
